Retour au catalogue

STARLINK-31380

ActifCommunicationsVLEO
NORAD 58979·PAYLOAD·🇺🇸 United States

Lancé Feb 15, 2024 depuis Vandenberg Space Force Base

Loading…

Prochains Passages (prochaines 24 heures)

TLE

FraisSource: CelesTrak SupGP

Époque: Sep 15, 2026, 02:35 UTC

1 58979C 24031Q   26258.10812500  .00031560  00000+0  93254-3 0  2586
2 58979  53.1563 134.6868 0001291  86.8720 311.7037 15.34371198    18

Suivez STARLINK-31380 en temps réel avec AllMySat

Download on the App Store